Regional Weather Roundup
Issued by NWS

Home | Current Version | Previous Version | Text Only | Print | Product List | Glossary On
Versions: 1 2 3 4 5 6 7 8 9 10 11 12 13 14 15 16 17 18 19 20 21 22 23 24 25 26 27 28 29 30 31 32 33 34 35 36 37 38 39 40 41 42 43 44 45 46 47 48 49 50
416
ASUS46 KSEW 251110
RWRWA

WASHINGTON REGIONAL WEATHER ROUNDUP
NATIONAL WEATHER SERVICE SEATTLE WA
400 AM PDT WED MAY 25 2016

NOTE:"FAIR" INDICATES FEW OR NO CLOUDS BELOW 12,000 FEET WITH NO
SIGNIFICANT WEATHER AND/OR OBSTRUCTIONS TO VISIBILITY.

WAZ505-507>509-251200-
SEATTLE, TACOMA, EVERETT, AND VICINITY

CITY           SKY/WX    TMP DP  RH WIND       PRES   REMARKS
EVERETT        CLOUDY    53  48  83 NW3       30.07R
BOEING FIELD   CLOUDY    58  50  75 CALM      30.06R
RENTON         CLOUDY    58  51  78 S6        30.06R
SEATAC AIRPORT CLOUDY    54  50  86 CALM      30.07R
JBLM-MCCHORD   CLOUDY    54  51  91 S5        30.07R
PUYALLUP       CLOUDY    54  52  94 CALM      30.08R
BREMERTON      CLOUDY    50  50 100 CALM      30.08F
JBLM-FT LEWIS  CLOUDY    52  51  99 SE5       30.07R
TACOMA NARROWS CLOUDY    53  49  86 SW3       30.07S
$$

WAZ001-503-506-510-514-515-251200-
NORTH INTERIOR

CITY           SKY/WX    TMP DP  RH WIND       PRES   REMARKS
BELLINGHAM     CLEAR     53  48  83 S5        30.04R
FRIDAY HARBOR  PTCLDY    44  43  96 CALM      30.05R
EASTSOUND      PTCLDY    52  48  87 S6        30.02S
PORT ANGELES   CLEAR     49  46  90 W9        30.07R
EDIZ HOOK      FAIR      51  47  87 W13       30.07R
PORT TOWNSEND  FAIR      48  46  93 CALM      30.07S
NAS WHIDBEY    PTCLDY    52  49  89 SW12      30.09S
ARLINGTON      CLOUDY    52  43  71 NW8       30.08S
BURLINGTON     CLOUDY    48  48 100 CALM      30.06S
$$

WAZ020-022-039-040-504-511-512-251200-
SOUTHWEST INTERIOR

CITY           SKY/WX    TMP DP  RH WIND       PRES   REMARKS
SHELTON        CLOUDY    50  48  93 SW8       30.05S
OLYMPIA        MOCLDY    44  42  93 CALM      30.07S
CHEHALIS       CLOUDY    52  48  87 SW3       30.09S
KELSO          CLOUDY    54  45  71 N3        30.12S
VANCOUVER      CLOUDY    54  46  74 CALM      30.08R
SCAPPOOSE, OR  CLOUDY    50  45  83 CALM      30.08R
PORTLAND, OR   CLOUDY    55  46  71 NW3       30.09R
$$

WAZ021-516-517-251200-
WASHINGTON COAST

CITY           SKY/WX    TMP DP  RH WIND       PRES   REMARKS
FORKS          CLOUDY    51  49  92 CALM      30.09R
HOQUIAM        CLOUDY    53  51  93 NW7       30.09S
ASTORIA, OR    CLOUDY    55  50  83 NW9       30.09S
$$

WAZ019-023-024-040-518-519-251200-
CASCADE MOUNTAINS AND COLUMBIA GORGE

CITY           SKY/WX    TMP DP  RH WIND       PRES   REMARKS
STAMPEDE PASS  CLOUDY    43  41  93 VRB5      30.04S
TROUTDALE, OR  CLOUDY    56  46  69 VRB3      30.08R
THE DALLES, OR CLEAR     56  47  71 W5        29.99R
$$

WAZ026-027-041>044-520-521-251200-
EAST SLOPES

CITY           SKY/WX    TMP DP  RH WIND       PRES   REMARKS
OMAK           PTCLDY    48  44  86 NW6       29.92S
WENATCHEE      CLEAR     55  43  63 NW7       29.94S
ELLENSBURG     CLEAR     54  42  64 NW15      29.96S
YAKIMA         CLEAR     48  39  71 CALM      29.96S
$$

WAZ028-034-035-251200-
COLUMBIA BASIN

CITY           SKY/WX    TMP DP  RH WIND       PRES   REMARKS
EPHRATA        MOCLDY    57  43  59 NW12      29.91S
MOSES LAKE     CLEAR     49  44  83 CALM      29.93R
PASCO          CLEAR     52  45  77 CALM      29.95R
HERMISTON, OR  CLEAR     55  44  66 SW7       29.96R
$$

WAZ036>038-251200-
NORTHEAST WASHINGTON

CITY           SKY/WX    TMP DP  RH WIND       PRES   REMARKS
SPOKANE GEIGER MOCLDY    49  45  86 S6        29.94F
SPOKANE FELTS  MOCLDY    48  46  93 NE5       29.96R
FAIRCHILD AFB  PTCLDY    48  46  95 VRB2      29.94S
COEURDALENE,ID MOCLDY    45  41  87 CALM      29.94S
DEER PARK      FOG       39  38  96 CALM      29.96S VSB 1/4
$$

WAZ029>033-251200-
SOUTHEAST WASHINGTON

CITY           SKY/WX    TMP DP  RH WIND       PRES   REMARKS
PULLMAN        CLOUDY    47  44  90 CALM      29.98S
LEWISTON, ID   PTCLDY    49  45  86 SE3       29.96S
WALLA WALLA    CLEAR     52  44  74 S7        29.97R
PENDLETON, OR  CLEAR     50  42  74 SE6       29.98R
$$




USA.gov is the U.S. government's official web portal to all federal, state and local government web resources and services.